Probability
0 0 0 0 0 0 0 0 0 0 0 0 0 0 0 0 0 0 0 0 0 0 0 0 0 0 0 0 0 0 0 0 0 0 0 0 0 0 0 0 0 0 0 0
0 0 0 0 0 0 0 0 0 0 0 0 0 0 0 0 0 0 0 0 0 0 0 0 0 0 0 0 0 0 0 0 0 0 0 0 0 0 0 0 0 0 0 0
0 0 0 0 0 0 0 0 0 0 0 0 0 0 0 0 0 0 0 0 0 0 0 0 0 0 0 0 0 0 0 0 0 0 0 0 0 0 0 0 0 0 0 0
0 0 0 0 0 0 0 0 0 0 0 0 0 0 0 0 0 0 0 0 0 0 0 0 0 0 0 0 0 0 0 0 0 0 0 0 0 0 0 0 0 0 0 0
0 0 0 0 0 0 0 0 0 0 0 0 0 0 0 0 0 0 0 0 0 0 0 0 0 0 0 0 0 0 0 0 0 0 0 0 0 0 0 0 0 0 0 0
0 0 0 0 0 0 0 0 0 0 0 0 0 0 0 0 0 0 0 0 0 0 0 0 0 0 0 0 0 0 0 0 0 0 0 0 0 0 0 0 0 0 0 0
0 0 0 0 0 0 0 0 0 0 0 0 0 0 0 0 0 0 0 0 0 0 0 0 0 0 0 0 0 0 0 0 0 0 0 0 0 0 0 0 0 0 0 0
0 0 0 0 0 0 0 0 0 0 0 0 0 0 0 0 0 0 0 0 0 0 0 0 0 0 0 0 0 0 0 0 0 0 0 0 0 0 0 0 0 0 0 0
0 0 0 0 0 0 0 0 0 0 0 0 0 0 0 0 0 0 0 0 0 0 0 0 0 0 0 0 0 0 0 0 0 0 0 0 0 0 0 0 0 0 0 0
0 0 0 0 0 0 0 0 0 0 0 0 0 0 0 0 0 0 0 0 0 0 0 0 0 0 0 0 0 0 0 0 0 0 0 0 0 0 0 0 0 0 0 0
0 0 0 0 0 0 0 0 0 0 0 0 0 0 0 0 0 0 0 0 0 0 0 0 0 0 0 0 0 0 0 0 0 0 0 0 0 0 0 0 0 0 0 0
0 0 0 0 0 0 0 0 0 0 0 0 0 0 0 0 0 0 0 0 0 0 0 0 0 0 0 0 0 0 0 0 0 0 0 0 0 0 0 0 0 0 0 0
0 0 0 0 0 0 0 0 0 0 0 0 0 0 0 0 0 0 0 0 0 0 0 0 0 0 0 0 0 0 0 0 0 0 0 0 0 0 0 0 0 0 0 0
0 0 0 0 0 0 0 0 0 0 0 0 0 0 0 0 0 0 0 0 0 0 0 0 0 0 0 0 0 0 0 0 0 0 0 0 0 0 0 0 0 0 0 0
0 0 0 0 0 0 0 0 0 0 0 0 0 0 0 0 0 0 0 0 0 0 0 0 0 0 0 0 0 0 0 0 0 0 0 0 0 0 0 0 0 0 0 0
0 0 0 0 0 0 0 0 0 0 0 0 0 0 0 0 0 0 0 0 0 0 0 0 0 0 0 0 0 0 0 0 0 0 0 0 0 0 0 0 0 0 0 0
0 0 0 0 0 0 0 0 0 0 0 0 0 0 0 0 0 0 0 0 0 0 0 0 0 0 0 0 0 0 0 0 0 0 0 0 0 0 0 0 0 0 0 0
0 0 0 0 0 0 0 0 0 0 0 0 0 0 0 0 0 0 0 0 0 0 0 0 0 0 0 0 0 0 0 0 0 0 0 0 0 0 0 0 0 0 0 0
0 0 0 0 0 0 0 0 0 0 0 0 0 0 0 0 0 0 0 0 0 0 0 0 0 0 0 0 0 0 0 0 0 0 0 0 0 0 0 0 0 0 0 0
0 0 0 0 0 0 0 0 0 0 0 0 0 0 0 0 0 0 0 0 0 0 0 0 0 0 0 0 0 0 0 0 0 0 0 0 0 0 0 0 0 0 0 0
0 0 0 0 0 0 0 0 0 0 0 0 0 0 0 0 0 0 0 0 0 0 0 0 0 0 0 0 0 0 0 0 0 0 0 0 0 0 0 0 0 0 0 0
0 0 0 0 0 0 0 0 0 0 0 0 0 0 0 0 0 0 0 0 0 0 0 0 0 0 0 0 0 0 0 0 0 0 0 0 0 0 0 0 0 0 0 0
0 0 0 0 0 0 0 0 0 0 0 0 0 0 0 0 0 0 0 0 0 0 0 0 0 0 0 0 0 0 0 0 0 0 0 0 0 0 0 0 0 0 0 0
0 0 0 0 0 0 0 0 0 0 0 0 0 0 0 0 0 0 0 0 0 0 0 0 0 0 0 0 0 0 0 0 0 0 0 0 0 0 0 0 0 0 0 0
0 0 0 0 0 0 0 0 0 0 0 0 0 0 0 0 0 0 0 0 0 0 0 0 0 0 0 0 0 0 0 0 0 0 0 0 0 0 0 0 0 0 0 0
0 0 0 0 0 0 0 0 0 0 0 0 0 0 0 0 0 0 0 0 0 0 0 0 0 0 0 0 0 0 0 0 0 0 0 0 0 0 0 0 0 0 0 0
Height
5860 5860 5858 5857 5856 5855 5853 5852 5851 5848 5846 5845 5844 5842 5837 5833 5831 5829 5828 5826 5825 5823 5821 5820 5819 5817 5816 5814 5812 5811 5809 5806 5804 5801 5798 5796 5792 5789 5785 5781 5776 5772 5767 5763
5857 5855 5854 5852 5851 5850 5848 5847 5845 5844 5841 5840 5839 5837 5831 5828 5825 5823 5821 5819 5818 5816 5814 5813 5811 5810 5808 5806 5804 5802 5800 5798 5795 5793 5789 5787 5783 5780 5775 5771 5766 5761 5757 5752
5851 5851 5849 5848 5846 5845 5843 5841 5840 5838 5836 5834 5833 5834 5827 5823 5819 5816 5814 5812 5810 5808 5807 5805 5804 5802 5800 5798 5795 5793 5791 5788 5786 5783 5780 5777 5773 5769 5765 5760 5755 5750 5745 5740
5847 5846 5845 5843 5841 5839 5838 5836 5834 5832 5830 5828 5826 5825 5823 5818 5813 5810 5807 5805 5803 5801 5799 5797 5795 5793 5791 5789 5786 5784 5781 5779 5776 5772 5769 5766 5762 5759 5754 5748 5744 5738 5733 5727
5842 5842 5840 5838 5836 5834 5832 5830 5828 5826 5824 5823 5820 5818 5817 5812 5808 5804 5800 5798 5795 5793 5791 5789 5787 5785 5782 5780 5777 5775 5771 5769 5765 5762 5758 5755 5751 5746 5741 5736 5731 5725 5720 5714
5838 5837 5835 5834 5831 5829 5826 5824 5822 5820 5819 5818 5815 5812 5810 5805 5801 5798 5794 5791 5788 5786 5783 5781 5778 5776 5774 5771 5768 5765 5762 5758 5755 5751 5747 5743 5739 5734 5729 5724 5718 5712 5707 5701
5834 5832 5830 5829 5826 5824 5821 5818 5815 5813 5811 5810 5808 5805 5803 5798 5793 5789 5786 5784 5781 5779 5776 5773 5771 5768 5765 5762 5759 5755 5752 5748 5743 5739 5735 5731 5726 5720 5715 5710 5704 5698 5693 5687
5829 5828 5826 5823 5821 5818 5815 5813 5809 5805 5803 5802 5800 5799 5798 5791 5785 5781 5778 5775 5773 5771 5768 5765 5762 5759 5755 5752 5748 5744 5740 5736 5732 5727 5722 5717 5712 5707 5701 5695 5689 5684 5678 5672
5822 5822 5820 5817 5814 5812 5809 5806 5803 5798 5794 5792 5791 5791 5791 5785 5778 5773 5768 5766 5764 5762 5759 5755 5752 5748 5744 5741 5737 5732 5728 5724 5719 5714 5709 5704 5698 5693 5687 5681 5674 5668 5662 5656
5815 5815 5814 5811 5809 5806 5802 5799 5795 5791 5786 5781 5779 5780 5782 5775 5769 5765 5760 5757 5755 5753 5749 5745 5741 5737 5733 5729 5725 5720 5715 5711 5705 5700 5695 5689 5684 5678 5672 5665 5659 5653 5647 5641
5808 5807 5806 5804 5802 5798 5796 5793 5788 5784 5780 5774 5768 5771 5772 5764 5758 5753 5749 5747 5745 5742 5738 5734 5730 5725 5721 5716 5712 5707 5702 5697 5691 5686 5680 5675 5669 5663 5656 5650 5644 5638 5631 5625
5801 5799 5797 5796 5794 5790 5787 5784 5781 5777 5772 5765 5760 5762 5762 5755 5747 5741 5738 5735 5732 5728 5724 5720 5716 5712 5707 5703 5698 5693 5688 5682 5677 5671 5665 5660 5654 5648 5641 5635 5629 5623 5616 5610
5793 5791 5789 5787 5787 5782 5778 5776 5772 5767 5763 5757 5752 5753 5750 5743 5735 5730 5726 5723 5719 5715 5710 5706 5702 5697 5693 5688 5683 5678 5672 5667 5661 5656 5650 5644 5638 5632 5626 5620 5614 5608 5601 5595
5784 5783 5781 5779 5776 5771 5768 5767 5763 5758 5753 5748 5744 5741 5740 5732 5725 5721 5716 5711 5706 5702 5697 5693 5688 5683 5678 5673 5668 5662 5657 5652 5646 5640 5635 5629 5623 5617 5611 5605 5599 5593 5586 5580
5775 5774 5772 5770 5767 5762 5759 5758 5754 5748 5744 5738 5735 5730 5727 5719 5714 5710 5705 5700 5694 5689 5684 5679 5674 5668 5663 5658 5653 5647 5642 5636 5631 5625 5620 5613 5607 5602 5596 5590 5584 5578 5571 5565
5767 5765 5763 5761 5758 5754 5751 5750 5745 5739 5735 5730 5725 5721 5716 5709 5704 5699 5693 5688 5682 5677 5671 5666 5660 5654 5649 5644 5638 5633 5627 5622 5616 5610 5604 5598 5592 5586 5580 5575 5569 5563 5556 5550
5760 5756 5753 5752 5749 5745 5745 5741 5736 5731 5727 5722 5716 5712 5705 5700 5694 5688 5683 5677 5671 5665 5659 5653 5647 5642 5636 5630 5624 5619 5613 5608 5601 5595 5589 5583 5577 5571 5565 5559 5554 5547 5541 5535
5751 5747 5743 5741 5739 5736 5737 5731 5725 5721 5717 5712 5706 5701 5696 5690 5684 5678 5672 5665 5659 5653 5647 5641 5635 5629 5623 5617 5611 5605 5599 5593 5587 5580 5574 5568 5562 5556 5550 5544 5538 5532 5526 5520
5742 5739 5735 5732 5727 5726 5726 5720 5714 5709 5706 5701 5696 5691 5685 5680 5674 5667 5660 5653 5647 5641 5635 5628 5622 5616 5610 5604 5598 5591 5585 5579 5572 5566 5560 5554 5547 5542 5536 5530 5524 5518 5512 5506
5734 5731 5728 5723 5717 5715 5715 5708 5702 5698 5694 5689 5684 5679 5673 5668 5662 5658 5649 5643 5636 5629 5623 5616 5610 5603 5597 5590 5584 5578 5571 5565 5558 5552 5546 5540 5534 5528 5522 5516 5510 5504 5498 5492
5724 5720 5718 5713 5707 5705 5703 5696 5690 5686 5682 5676 5670 5665 5660 5654 5648 5643 5637 5630 5623 5616 5610 5603 5597 5590 5583 5577 5571 5564 5558 5551 5545 5538 5532 5526 5520 5514 5508 5502 5496 5490 5484 5477
5713 5710 5707 5703 5698 5697 5689 5683 5678 5673 5668 5663 5657 5652 5647 5641 5634 5628 5622 5616 5609 5603 5596 5590 5584 5577 5570 5563 5557 5551 5544 5538 5531 5525 5518 5512 5506 5500 5493 5487 5481 5475 5468 5462
5701 5699 5695 5692 5688 5682 5675 5668 5664 5659 5654 5649 5643 5638 5632 5626 5620 5614 5608 5601 5595 5589 5582 5576 5570 5564 5556 5549 5542 5537 5530 5524 5518 5511 5504 5498 5492 5485 5478 5472 5466 5459 5453 5446
5688 5686 5682 5677 5674 5668 5661 5655 5650 5644 5639 5634 5628 5622 5616 5610 5604 5598 5592 5586 5579 5573 5567 5561 5555 5549 5543 5535 5528 5521 5516 5510 5504 5498 5491 5484 5477 5471 5464 5457 5450 5444 5437 5431
5674 5670 5664 5660 5658 5653 5648 5640 5635 5629 5623 5618 5612 5606 5599 5593 5588 5582 5576 5570 5564 5558 5551 5546 5540 5534 5527 5521 5514 5507 5501 5495 5489 5483 5476 5470 5463 5456 5449 5442 5435 5428 5422 5414
5660 5652 5646 5644 5640 5635 5632 5624 5618 5612 5607 5601 5595 5589 5582 5576 5571 5565 5559 5553 5547 5541 5536 5530 5524 5518 5512 5505 5499 5492 5486 5480 5474 5468 5461 5455 5448 5441 5434 5427 5420 5412 5406 5399
Wind_Speed
22 23 24 24 24 24 24 24 24 25 26 25 23 21 22 25 27 26 26 26 26 26 28 28 27 28 28 29 30 31 32 33 34 35 36 37 38 40 42 43 45 46 47 48
21 22 23 24 24 25 26 26 26 26 27 27 24 21 24 25 27 27 28 28 28 29 30 30 31 31 31 32 33 34 35 36 37 38 39 39 41 42 44 46 48 50 50 51
19 20 21 22 24 25 26 27 27 27 27 27 25 19 22 25 27 28 29 29 30 31 32 33 33 33 34 35 36 37 38 39 40 41 42 42 44 45 47 49 51 52 53 54
17 19 20 22 24 25 25 27 28 28 28 26 27 23 22 24 27 28 29 30 32 33 34 35 35 35 37 38 40 40 41 42 43 45 45 46 47 48 50 52 53 54 55 56
18 18 19 21 23 25 26 27 28 28 28 27 27 26 24 25 26 28 30 31 32 33 35 37 38 38 39 41 42 43 45 45 46 48 49 50 50 52 54 55 55 57 57 58
19 20 20 22 24 26 28 29 30 30 29 28 27 26 25 26 27 28 29 31 32 33 35 37 39 40 42 43 45 46 47 48 49 50 51 52 53 55 56 56 57 58 59 59
20 22 23 24 26 27 29 31 33 33 32 30 29 29 27 30 31 31 32 32 32 33 34 36 38 40 42 44 46 48 49 49 51 52 52 54 55 56 57 58 58 59 60 60
22 23 24 25 27 28 29 31 33 36 36 35 32 30 28 31 34 34 35 35 34 34 35 36 36 38 40 42 45 46 48 49 51 52 53 55 56 57 58 59 61 60 60 60
25 25 25 27 28 30 31 32 34 37 40 40 37 34 29 32 35 37 39 39 38 37 37 38 38 40 41 42 44 46 48 49 51 53 54 55 56 58 59 60 61 61 62 62
28 28 27 28 29 31 33 35 36 38 41 44 43 39 34 35 36 38 40 40 40 39 40 40 41 42 43 44 45 46 48 49 51 52 54 55 56 57 58 59 60 61 62 62
31 31 30 30 31 32 33 34 36 39 41 44 47 44 37 37 38 42 44 44 43 42 42 42 43 43 44 45 46 47 48 50 51 52 54 55 55 56 57 58 60 61 62 62
33 34 34 33 33 34 35 36 37 39 42 43 47 46 38 39 44 48 49 48 47 46 46 45 45 45 45 46 47 48 49 50 51 51 52 53 54 56 57 58 59 61 62 62
34 35 36 36 35 36 37 37 38 40 42 44 46 46 42 43 47 49 50 49 49 49 48 48 48 48 48 48 48 49 49 49 50 50 51 52 54 55 56 57 58 59 60 60
35 35 36 36 36 38 38 37 38 39 41 43 44 44 42 44 47 48 49 49 50 50 50 50 50 50 49 49 49 49 49 48 48 49 50 52 53 55 56 56 56 57 58 58
36 35 35 35 35 36 37 36 36 38 40 43 43 44 44 46 48 48 48 49 49 50 50 50 50 50 49 49 48 48 48 48 48 49 51 53 54 55 56 56 56 56 57 58
34 35 34 33 33 35 35 33 34 37 39 41 42 43 44 47 48 48 49 49 49 49 49 49 49 48 48 48 48 48 48 49 50 52 53 54 55 55 55 55 55 56 56 57
32 34 35 34 34 35 33 33 35 37 38 40 42 43 45 46 47 47 47 48 49 49 48 48 47 47 47 48 48 48 49 50 51 52 53 54 54 54 54 54 54 55 55 55
32 33 36 36 36 37 35 35 37 39 40 41 42 44 45 45 46 47 47 48 48 48 47 47 47 48 48 49 49 50 50 50 51 52 52 52 52 52 52 52 52 52 52 52
32 34 37 38 40 40 36 39 41 43 42 44 45 46 46 47 47 48 49 48 49 49 49 49 49 49 49 50 50 50 50 50 50 50 49 50 49 49 49 49 50 50 51 51
33 35 37 39 42 43 42 44 46 47 48 48 49 49 50 51 51 50 51 50 50 50 50 50 49 49 49 50 50 50 50 50 49 48 48 48 47 46 47 48 49 49 49 50
36 38 39 41 44 45 46 48 50 51 53 53 53 54 54 55 55 55 55 55 54 53 52 52 51 50 50 50 50 50 50 50 49 49 49 48 48 48 49 49 50 50 51 52
40 42 44 46 48 48 50 52 54 55 56 57 57 57 58 58 59 59 59 58 57 56 55 54 53 52 51 51 51 50 50 50 49 49 48 48 49 50 50 51 52 52 53 53
45 46 48 50 51 51 54 56 58 59 60 60 61 61 62 62 62 62 62 61 59 58 57 56 54 53 53 52 52 52 51 50 49 48 49 49 50 51 52 53 53 53 54 54
50 50 51 54 54 55 58 59 61 62 63 64 64 65 66 65 65 65 64 63 61 60 58 57 56 55 54 53 53 53 52 51 51 50 51 51 51 51 52 53 53 54 55 55
53 54 56 58 58 60 61 63 64 65 66 67 67 68 68 68 67 66 65 63 62 60 59 57 56 56 55 54 54 54 54 53 52 52 51 51 51 51 52 53 54 55 55 55
55 58 61 62 63 65 65 67 68 69 69 70 70 70 69 68 67 65 63 62 61 60 59 57 56 56 55 55 54 54 54 53 53 52 52 52 53 54 54 55 55 55 55 55
Wind_Direction
274 277 280 283 286 289 291 293 295 295 296 298 301 303 295 288 287 284 281 278 275 271 270 271 270 270 270 271 272 273 275 277 280 282 284 286 289 290 293 295 296 297 299 300
276 280 282 285 287 290 292 294 295 296 297 299 301 306 300 295 290 286 283 280 277 274 272 271 270 270 270 270 272 273 275 277 279 281 283 286 288 290 292 294 295 297 298 299
282 283 286 288 290 291 295 296 297 299 300 302 301 303 299 295 292 289 286 282 279 277 275 273 272 271 270 271 271 273 275 277 279 281 284 286 288 290 292 293 294 296 297 297
287 288 290 292 293 295 297 297 299 301 303 306 305 307 303 298 296 292 288 285 281 278 276 274 272 271 271 272 273 275 277 278 280 282 285 287 289 290 291 292 294 295 296 297
291 292 294 295 296 298 299 299 300 302 304 307 307 308 307 300 297 294 291 287 284 281 279 277 275 274 274 274 275 277 278 280 282 284 286 287 289 290 290 292 294 294 295 296
294 296 297 298 298 300 300 301 301 302 303 304 306 309 309 304 300 297 294 292 289 286 284 282 281 280 279 278 279 280 281 282 284 285 287 288 289 290 291 292 293 293 294 295
294 296 298 299 299 300 301 303 303 303 304 305 308 310 313 309 305 302 299 296 294 292 290 289 288 287 286 285 285 285 285 286 286 287 288 289 289 290 291 292 292 293 293 294
295 297 298 299 300 301 302 303 304 305 305 305 307 309 313 309 305 302 299 297 295 294 294 294 293 291 290 289 288 288 288 288 288 288 289 289 290 290 291 291 292 292 293 293
296 296 298 299 300 301 302 302 302 303 303 303 304 305 309 307 303 301 299 298 299 299 299 297 296 294 292 291 290 289 289 289 288 288 288 289 289 289 290 291 292 292 292 292
295 296 297 298 299 300 301 303 304 304 305 305 305 307 314 309 304 300 298 299 300 300 298 297 295 294 293 291 290 289 289 289 288 288 289 289 289 290 290 291 292 292 293 293
295 296 298 299 300 301 301 302 302 302 303 304 305 308 316 310 305 300 299 301 302 300 298 296 295 294 293 292 291 290 290 290 289 289 289 289 289 290 290 291 292 292 293 293
295 297 298 299 301 300 300 301 302 303 303 304 304 307 312 307 302 300 302 304 303 302 301 300 299 297 296 294 293 291 291 290 289 289 289 289 290 290 291 291 292 293 293 293
295 297 299 300 301 300 301 302 303 302 302 302 302 307 309 305 301 302 305 305 305 304 303 302 301 300 298 296 295 294 293 292 291 291 291 291 291 291 292 292 292 293 294 295
294 296 298 300 302 301 302 302 302 301 301 301 303 306 306 303 302 305 306 306 305 304 303 302 302 301 299 298 297 296 295 294 293 293 292 292 293 293 293 293 292 293 295 295
294 296 297 299 300 300 301 305 304 302 302 303 306 305 307 304 306 308 308 307 306 305 304 303 303 301 300 299 298 298 297 296 295 294 294 293 293 293 293 292 292 293 294 295
293 296 297 299 299 299 302 305 301 301 302 303 305 305 304 305 307 308 308 307 307 306 306 305 303 302 302 301 300 299 299 298 297 296 295 294 294 293 293 293 293 293 294 296
294 296 296 298 298 299 303 303 301 301 302 302 303 304 304 306 307 307 307 307 307 306 306 305 304 303 302 302 302 301 300 299 298 297 296 295 294 293 292 292 293 293 294 296
296 297 297 300 300 302 307 305 303 303 304 303 303 304 306 308 308 307 308 307 307 307 306 304 303 303 303 302 301 301 300 299 299 299 298 297 296 294 293 293 293 294 294 295
295 295 297 299 300 302 305 303 302 303 304 303 304 306 306 307 307 308 308 308 308 308 306 305 304 303 302 301 300 299 298 298 299 299 299 299 297 296 294 294 294 294 294 295
293 294 296 299 299 302 306 303 302 303 302 303 305 306 306 306 306 307 307 306 306 305 305 304 304 303 302 301 301 300 299 298 298 299 299 298 298 296 295 296 296 295 295 297
293 295 296 297 298 300 301 301 301 301 302 303 304 305 305 305 305 305 304 304 304 304 304 303 303 303 302 301 301 300 300 300 300 300 299 298 297 296 296 296 296 296 296 297
292 293 294 296 297 299 298 298 298 299 300 301 302 302 302 302 302 302 302 302 302 302 302 302 301 301 302 301 300 299 300 301 301 300 299 298 297 297 297 297 296 297 297 297
290 292 294 294 295 296 295 295 296 297 298 299 299 299 300 300 300 300 300 301 301 301 300 300 300 300 300 300 300 299 299 300 301 300 299 299 298 298 298 298 298 298 298 298
290 292 292 291 291 291 292 293 294 295 296 296 297 298 298 298 298 298 299 299 299 300 299 299 298 299 299 299 298 298 299 299 300 300 300 300 300 299 299 299 299 299 299 299
292 292 290 289 290 290 291 292 293 293 294 294 295 296 296 296 297 297 298 298 298 298 298 298 298 298 297 297 297 298 298 298 299 299 300 300 301 301 300 300 300 300 299 299
292 290 289 290 291 291 292 292 292 292 293 294 294 295 295 296 296 297 297 297 297 297 297 297 298 298 297 297 297 298 299 299 299 299 299 299 300 301 301 301 301 300 300 299